Flag for Germany Weather past 2 weeks in Nienburg (Weser), Lower Saxony, Germany

Now
37 °F

Chilly.


Feels Like: 30 °F
Forecast: 39 / 58 °F
Wind: 10 mph from Southwest

Location: Wunstorf Airport

Current Time: Mar 7, 2015 at 5:49:17 AM

Latest Report: Mar 7, 2015 at 5:20 AM


Visibility: 5 mi

Pressure: 30.42 "Hg

Humidity: 81%

Dew point: 32 °F

Location of Nienburg (Weser)Location

Historic Weather in Nienburg (Weser) — Graph

°F

Nienburg (Weser) temperature yesterday

Maximum temperature yesterday: 48 °F (at 3:20 PM)
Minimum temperature yesterday: 41 °F (at 12:20 AM)
Average temperature yesterday: 43 °F

Past Weeks' High & Low Weather Summary

 TemperatureHumidityPressure
High50 °F (Mar 1, 1:20 PM)100% (Feb 28, 5:20 AM)30.57 "Hg (Feb 28, 5:20 AM)
Low30 °F (Feb 22, 8:20 PM)43% (Feb 28, 4:20 PM)29.30 "Hg (Feb 21, 7:20 AM)
Average40 °F79%29.89 "Hg
* Reported Feb 20 4:20 AM — Mar 7 4:20 AM, Nienburg (Weser), Weather by CustomWeather, © 2015

Note: Actual official high and low records may vary slightly from our data, if they occured in-between our weather recording intervals... More about our weather records

Advertising

Nienburg (Weser) weather history for previous 24 hours

 ConditionsComfort  
Time TempWeatherWind HumidityBarometerVisibility
4:20 AM
Sat, Mar 7
36 °FChilly.8 mph87%30.45 "Hg5 mi
3:20 AM36 °FChilly.9 mph87%30.45 "Hg4 mi
2:20 AM36 °FChilly.7 mph87%30.48 "Hg4 mi
1:20 AM39 °FChilly.7 mph75%30.51 "Hg4 mi
12:20 AM43 °FQuite cool.5 mph71%30.51 "Hg5 mi
11:20 PM
Fri, Mar 6
43 °FQuite cool.6 mph71%30.51 "Hg6 mi
10:20 PM45 °FQuite cool.7 mph66%30.51 "Hg6 mi
9:20 PM45 °FQuite cool.7 mph66%30.51 "Hg6 mi
8:20 PM45 °FQuite cool.7 mph71%30.54 "Hg5 mi
7:20 PM45 °FQuite cool.7 mph71%30.54 "Hg5 mi
6:20 PM45 °FQuite cool.9 mph71%30.54 "Hg6 mi
5:20 PM46 °FCool.8 mph66%30.51 "Hg6 mi
4:20 PM46 °FCool.10 mph66%30.51 "HgN/A
3:20 PM48 °FCool.12 mph66%30.51 "Hg6 mi
2:20 PM46 °FCool.13 mph66%30.54 "Hg6 mi
1:20 PM46 °FCool.10 mph66%30.51 "Hg6 mi
12:20 PM45 °FQuite cool.9 mph71%30.54 "Hg6 mi
11:20 AM43 °FOvercast.10 mph71%30.54 "HgN/A
10:20 AM41 °FOvercast.10 mph81%30.54 "HgN/A
9:20 AM41 °FOvercast.12 mph76%30.54 "HgN/A
8:20 AM41 °FOvercast.12 mph76%30.54 "HgN/A
7:20 AM41 °FOvercast.9 mph76%30.54 "HgN/A
6:20 AM41 °FPassing clouds.10 mph76%30.54 "HgN/A
5:20 AM41 °FOvercast.7 mph76%30.54 "HgN/A
Weather by CustomWeather, © 2015

See weather overviewHow to use our weather pages